Location: Austin
(30.3000°N, 97.7500°W)
Time: 05:15:39
(UTC-06:00)

COBE Rocket - Pass Details

Date: 03 March 2026
Orbit: 674 x 773 km, 97.1° (Epoch: 5 March)

Event Time Altitude Azimuth Distance (km) Brightness Sun altitude
Rises 19:23:24 0° 23° (NNE) 3,028 6.9 -12.0°
Reaches altitude 10° 19:25:50 10° 33° (NNE) 2,108 6.0 -12.5°
Maximum altitude 19:29:59 33° 97° (E) 1,128 4.3 -13.4°
Drops below altitude 10° 19:34:07 10° 161° (SSE) 2,108 6.1 -14.3°
Sets 19:36:32 0° 171° (S) 3,027 7.0 -14.9°
